Regional Weather Roundup
Issued by NWS

Home | Current Version | Previous Version | Text Only | Print | Product List | Glossary Off
Versions: 1 2 3 4 5 6 7 8 9 10 11 12 13 14 15 16 17 18 19 20 21 22 23 24 25 26 27 28 29 30 31 32 33 34 35 36 37 38 39 40 41 42 43 44 45 46 47 48 49 50

000
ASUS43 KOAX 161602
RWRNE

WEATHER ROUNDUP FOR NEBRASKA
NATIONAL WEATHER SERVICE OMAHA NE
1000 AM CST MON JAN 16 2017

NOTES: SATELLITE DATA IS BEING USED TO AUGMENT CLOUD COVER ABOVE
       12000 FEET.
       "FAIR" INDICATES FEW OR NO CLOUDS BELOW 12,000 FEET WITH NO
       SIGNIFICANT WEATHER AND/OR OBSTRUCTIONS TO VISIBILITY.

  * THESE STATIONS DO NOT REPORT WEATHER SUCH AS RAIN...SNOW OR FOG.

NEZ001>004-019>022-054>056-161700-
NEBRASKA PANHANDLE

CITY           SKY/WX    TMP DP  RH WIND       PRES   REMARKS
SCOTTSBLUFF    CLOUDY    36  18  48 NW10      30.07R WCI  28
ALLIANCE       CLOUDY    31  18  58 N14       30.03S WCI  21
CHADRON        CLOUDY    27  17  66 NW7       30.11S WCI  19
KIMBALL        CLOUDY    32  26  77 N16       30.03R WCI  21
SIDNEY         CLOUDY    33  24  69 N16       30.01R WCI  23
$$

NEZ057>060-069>072-079>082-161700-
SOUTHWEST NEBRASKA

CITY           SKY/WX    TMP DP  RH WIND       PRES   REMARKS
NORTH PLATTE   LGT RAIN  33  31  92 N7        29.96R FOG     WCI  27
IMPERIAL       LGT RAIN  33  31  92 N18       29.95R FOG     WCI  22
LEXINGTON      LGT RAIN  33  32  96 N8        29.94R WCI  26
MCCOOK         LGT RAIN  33  32  96 N10       29.93R FOG     WCI  25
OGALLALA       LGT SNOW  35  33  94 N13       29.99R WCI  26
$$

NEZ005>010-023>029-035>040-094-161700-
NORTH CENTRAL NEBRASKA

CITY           SKY/WX    TMP DP  RH WIND       PRES   REMARKS
VALENTINE      CLOUDY    30  20  66 N9        30.05R WCI  22
AINSWORTH      CLOUDY    28  26  91 N13       30.03S WCI  17
BROKEN BOW     LGT RAIN  34  32  92 N16       29.96R FOG     WCI  24
O`NEILL        CLOUDY    31  31  96 N8        30.02S FOG     WCI  24
ORD            MIX PCPN  32  30  92 N10       29.97R FOG     WCI  24
THEDFORD       CLOUDY    32  31  94 N7        30.01R WCI  26
$$

NEZ041-046>049-061>064-073>077-083>087-161700-
SOUTH CENTRAL NEBRASKA

CITY           SKY/WX    TMP DP  RH WIND       PRES   REMARKS
GRAND ISLAND     N/A    N/A N/A N/A MISG      29.94S
AURORA         MIX PCPN  32  31  98 NE6       29.94R WCI  26
HASTINGS       FRZ RAIN  32  30  92 NE14      29.94R FOG     WCI  22
HEBRON         MIX PCPN  32  31  98 NE3       29.91R
HOLDREGE       LGT SNOW  32  31  96 N6        29.92R WCI  26
KEARNEY *      CLOUDY    32  28  86 N9        29.94R WCI  24
YORK           RAIN      32  32 100 CALM      29.94R
$$

NEZ011>018-030>034-042>045-161700-
NORTHEAST NEBRASKA

CITY           SKY/WX    TMP DP  RH WIND       PRES   REMARKS
NORFOLK        MIX PCPN  31  29  92 N12       29.99R FOG     WCI  22
ALBION         MIX PCPN  32  31  95 N8        29.99R WCI  25
BLAIR          MIX PCPN  32  32  99 NE8       29.96F WCI  25
FREMONT        MIX PCPN  32  32 100 NE6       29.99S WCI  27
TEKAMAH        LGT RAIN  33  31  92 NE8       30.00S FOG     WCI  26
WAYNE          CLOUDY    32  31  98 N7        30.01S FOG     WCI  25
$$

NEZ050>053-065>068-078-088>093-161700-
SOUTHEAST NEBRASKA

CITY           SKY/WX    TMP DP  RH WIND       PRES   REMARKS
LINCOLN        RAIN      33  31  92 NE13      29.96R FOG     WCI  24
OMAHA EPPLEY   LGT RAIN  33  29  85 NE6       29.98F FOG     WCI  28
BEATRICE       LGT RAIN  33  32  96 NE7       29.91S WCI  27
FALLS CITY     CLOUDY    33  32  96 E9        29.91S FOG     WCI  25
NEBRASKA CITY  MIX PCPN  32  32 100 NE7       29.93S WCI  26
PLATTSMOUTH    MIX PCPN  32  31  94 NE6       29.94F WCI  27
$$

NEZ044-045-051>053-067-161700-
OMAHA AREA

CITY           SKY/WX    TMP DP  RH WIND       PRES   REMARKS
OMAHA EPPLEY   LGT RAIN  33  29  85 NE6       29.98F FOG     WCI  28
BLAIR          MIX PCPN  32  32  99 NE8       29.96F WCI  25
FREMONT        MIX PCPN  32  32 100 NE6       29.99S WCI  27
MILLARD        LGT RAIN  35  33  93 CALM      29.97S
OFFUTT AFB     RAIN      33  33 100 NE6       29.96F FOG     WCI  27
PLATTSMOUTH    MIX PCPN  32  31  94 NE6       29.94F WCI  27
WAHOO          LGT SNOW  32  32  98 NE10      29.97S WCI  24
$$




USA.gov is the U.S. government's official web portal to all federal, state and local government web resources and services.